| time (UTC) | temp C | wind direction | speed KPH | gust KPH | rain 1hr cm | rain 24hr cm | rain mn cm | humidity % | barometer mb |
| 20260506014141 | 19 | 200 | 0.0 | 0.0 | 0.00 | 0.00 | 0.00 | 67 | 1017.3 |
| 20260506013418 | 19 | 200 | 0.0 | 0.0 | 0.00 | 0.00 | 0.00 | 66 | 1017.2 |
| 20260506012915 | 20 | 200 | 0.0 | 0.0 | 0.00 | 0.00 | 0.00 | 66 | 1017.2 |
| 20260506012406 | 20 | 200 | 0.0 | 0.0 | 0.00 | 0.00 | 0.00 | 64 | 1017.0 |
| 20260506011856 | 20 | 200 | 0.0 | 0.0 | 0.00 | 0.00 | 0.00 | 63 | 1017.0 |
| 20260506011356 | 20 | 200 | 0.0 | 0.0 | 0.00 | 0.00 | 0.00 | 62 | 1017.0 |
| 20260506011113 | 20 | 200 | 0.0 | 0.0 | 0.00 | 0.00 | 0.00 | 62 | 1017.0 |
| 20260506010352 | 21 | 200 | 0.0 | 0.0 | 0.00 | 0.00 | 0.00 | 61 | 1017.0 |
| 20260506005847 | 21 | 200 | 0.0 | 0.0 | 0.00 | 0.00 | 0.00 | 61 | 1017.0 |
| 20260506005341 | 21 | 200 | 0.0 | 0.0 | 0.00 | 0.00 | 0.00 | 60 | 1017.1 |
| 20260506004838 | 21 | 200 | 0.0 | 0.0 | 0.00 | 0.00 | 0.00 | 61 | 1017.2 |
| 20260506004338 | 21 | 200 | 0.0 | 0.0 | 0.00 | 0.00 | 0.00 | 61 | 1017.1 |
| 20260506004135 | 22 | 200 | 0.0 | 0.0 | 0.00 | 0.00 | 0.00 | 60 | 1017.0 |
| 20260506003330 | 22 | 200 | 0.0 | 0.0 | 0.00 | 0.00 | 0.00 | 59 | 1017.0 |
| 20260506002827 | 23 | 200 | 0.0 | 0.0 | 0.00 | 0.00 | 0.00 | 59 | 1016.9 |
| 20260506002326 | 23 | 200 | 0.0 | 0.0 | 0.00 | 0.00 | 0.00 | 53 | 1016.9 |
| 20260506001825 | 23 | 200 | 0.0 | 0.0 | 0.00 | 0.00 | 0.00 | 50 | 1016.9 |
| 20260506001328 | 23 | 200 | 0.0 | 0.0 | 0.00 | 0.00 | 0.00 | 48 | 1016.9 |
| 20260506000825 | 23 | 200 | 0.0 | 0.0 | 0.00 | 0.00 | 0.00 | 48 | 1016.8 |
| 20260506000324 | 23 | 200 | 0.0 | 0.0 | 0.00 | 0.00 | 0.00 | 47 | 1016.9 |
| 20260505235827 | 24 | 200 | 0.0 | 0.0 | 0.00 | 0.00 | 0.00 | 49 | 1017.0 |
| 20260505235319 | 24 | 200 | 0.0 | 0.0 | 0.00 | 0.00 | 0.00 | 47 | 1017.0 |
| 20260505234817 | 24 | 200 | 0.0 | 0.0 | 0.00 | 0.00 | 0.00 | 46 | 1016.9 |
| 20260505234317 | 24 | 200 | 0.0 | 0.0 | 0.00 | 0.00 | 0.00 | 45 | 1016.9 |
| 20260505233830 | 25 | 200 | 0.0 | 0.0 | 0.00 | 0.00 | 0.00 | 45 | 1017.0 |
| 20260505232814 | 25 | 200 | 0.0 | 0.0 | 0.00 | 0.00 | 0.00 | 44 | 1016.8 |
| 20260505232314 | 25 | 200 | 0.0 | 0.0 | 0.00 | 0.00 | 0.00 | 43 | 1016.6 |
| 20260505231814 | 25 | 200 | 0.0 | 0.0 | 0.00 | 0.00 | 0.00 | 42 | 1016.5 |
| 20260505231315 | 25 | 200 | 0.0 | 0.0 | 0.00 | 0.00 | 0.00 | 41 | 1016.5 |
| 20260505230813 | 25 | 200 | 0.0 | 0.0 | 0.00 | 0.00 | 0.00 | 41 | 1016.6 |
| 20260505230307 | 26 | 200 | 0.0 | 1.6 | 0.00 | 0.00 | 0.00 | 41 | 1016.5 |
| 20260505225801 | 26 | 200 | 0.0 | 3.2 | 0.00 | 0.00 | 0.00 | 42 | 1016.6 |
| 20260505225521 | 26 | 157 | 0.0 | 3.2 | 0.00 | 0.00 | 0.00 | 42 | 1016.6 |
| 20260505224749 | 26 | 161 | 0.0 | 6.4 | 0.00 | 0.00 | 0.00 | 41 | 1016.6 |
| 20260505224737 | 26 | 161 | 0.0 | 6.4 | 0.00 | 0.00 | 0.00 | 42 | 1016.5 |
| 20260505223742 | 26 | 150 | 0.0 | 4.8 | 0.00 | 0.00 | 0.00 | 43 | 1016.5 |
| 20260505223230 | 26 | 111 | 0.0 | 4.8 | 0.00 | 0.00 | 0.00 | 41 | 1016.4 |
| 20260505223004 | 26 | 111 | 0.0 | 1.6 | 0.00 | 0.00 | 0.00 | 42 | 1016.3 |
| 20260505222228 | 26 | 124 | 0.0 | 3.2 | 0.00 | 0.00 | 0.00 | 42 | 1016.3 |
| 20260505221728 | 26 | 175 | 0.0 | 3.2 | 0.00 | 0.00 | 0.00 | 44 | 1016.4 |
| 20260505221221 | 26 | 67 | 0.0 | 1.6 | 0.00 | 0.00 | 0.00 | 44 | 1016.3 |
| 20260505221207 | 26 | 67 | 0.0 | 3.2 | 0.00 | 0.00 | 0.00 | 43 | 1016.1 |
| 20260505220211 | 26 | 69 | 0.0 | 3.2 | 0.00 | 0.00 | 0.00 | 44 | 1016.3 |
| 20260505215712 | 26 | 107 | 0.0 | 6.4 | 0.00 | 0.00 | 0.00 | 43 | 1016.5 |
| 20260505215209 | 26 | 126 | 1.6 | 6.4 | 0.00 | 0.00 | 0.00 | 44 | 1016.5 |
| 20260505214710 | 26 | 14 | 0.0 | 6.4 | 0.00 | 0.00 | 0.00 | 43 | 1016.4 |
| 20260505214210 | 26 | 175 | 0.0 | 6.4 | 0.00 | 0.00 | 0.00 | 42 | 1016.5 |
| 20260505213709 | 26 | 165 | 0.0 | 6.4 | 0.00 | 0.00 | 0.00 | 43 | 1016.6 |
| 20260505213209 | 26 | 184 | 0.0 | 0.0 | 0.00 | 0.00 | 0.00 | 43 | 1016.6 |
| 20260505212707 | 26 | 184 | 0.0 | 4.8 | 0.00 | 0.00 | 0.00 | 41 | 1016.7 |
| 20260505212210 | 26 | 184 | 0.0 | 8.0 | 0.00 | 0.00 | 0.00 | 41 | 1016.8 |
| 20260505211657 | 26 | 174 | 1.6 | 8.0 | 0.00 | 0.00 | 0.00 | 40 | 1016.6 |
| 20260505211156 | 26 | 26 | 0.0 | 6.4 | 0.00 | 0.00 | 0.00 | 41 | 1016.5 |
| 20260505210657 | 26 | 101 | 0.0 | 6.4 | 0.00 | 0.00 | 0.00 | 41 | 1016.5 |
| 20260505210423 | 27 | 129 | 0.0 | 3.2 | 0.00 | 0.00 | 0.00 | 40 | 1016.7 |
| 20260505205650 | 27 | 148 | 0.0 | 9.7 | 0.00 | 0.00 | 0.00 | 40 | 1016.9 |
| 20260505205149 | 27 | 83 | 0.0 | 9.7 | 0.00 | 0.00 | 0.00 | 40 | 1017.0 |
| 20260505204649 | 27 | 64 | 1.6 | 9.7 | 0.00 | 0.00 | 0.00 | 41 | 1017.1 |
| 20260505204149 | 27 | 63 | 0.0 | 8.0 | 0.00 | 0.00 | 0.00 | 39 | 1017.1 |
| 20260505203649 | 27 | 138 | 0.0 | 6.4 | 0.00 | 0.00 | 0.00 | 40 | 1017.2 |
| 20260505203147 | 27 | 138 | 0.0 | 6.4 | 0.00 | 0.00 | 0.00 | 42 | 1017.1 |
| 20260505202646 | 27 | 194 | 0.0 | 3.2 | 0.00 | 0.00 | 0.00 | 39 | 1017.2 |
| 20260505202141 | 27 | 115 | 0.0 | 4.8 | 0.00 | 0.00 | 0.00 | 42 | 1017.1 |
| 20260505201902 | 27 | 115 | 0.0 | 6.4 | 0.00 | 0.00 | 0.00 | 41 | 1017.3 |
| 20260505201140 | 26 | 87 | 0.0 | 6.4 | 0.00 | 0.00 | 0.00 | 42 | 1017.4 |
| 20260505200859 | 26 | 134 | 0.0 | 8.0 | 0.00 | 0.00 | 0.00 | 41 | 1017.4 |
| 20260505200138 | 26 | 222 | 1.6 | 14.5 | 0.00 | 0.00 | 0.00 | 40 | 1017.7 |
| 20260505195638 | 27 | 124 | 0.0 | 14.5 | 0.00 | 0.00 | 0.00 | 40 | 1017.5 |
| 20260505195137 | 27 | 176 | 0.0 | 4.8 | 0.00 | 0.00 | 0.00 | 41 | 1017.5 |
| 20260505194627 | 27 | 176 | 0.0 | 4.8 | 0.00 | 0.00 | 0.00 | 39 | 1017.7 |
| 20260505194129 | 27 | 181 | 0.0 | 3.2 | 0.00 | 0.00 | 0.00 | 41 | 1017.8 |
| 20260505193854 | 26 | 180 | 0.0 | 4.8 | 0.00 | 0.00 | 0.00 | 43 | 1017.7 |
| 20260505193126 | 26 | 146 | 0.0 | 4.8 | 0.00 | 0.00 | 0.00 | 42 | 1017.7 |
| 20260505192615 | 26 | 116 | 0.0 | 3.2 | 0.00 | 0.00 | 0.00 | 44 | 1017.8 |
| 20260505192116 | 26 | 133 | 0.0 | 6.4 | 0.00 | 0.00 | 0.00 | 41 | 1017.8 |
| 20260505191614 | 26 | 95 | 0.0 | 6.4 | 0.00 | 0.00 | 0.00 | 43 | 1017.9 |
| 20260505191109 | 26 | 148 | 0.0 | 6.4 | 0.00 | 0.00 | 0.00 | 41 | 1018.1 |
| 20260505190610 | 26 | 77 | 0.0 | 8.0 | 0.00 | 0.00 | 0.00 | 43 | 1018.1 |
| 20260505190107 | 26 | 174 | 0.0 | 14.5 | 0.00 | 0.00 | 0.00 | 43 | 1018.2 |
| 20260505185606 | 26 | 351 | 1.6 | 14.5 | 0.00 | 0.00 | 0.00 | 43 | 1018.2 |
| 20260505185106 | 25 | 109 | 0.0 | 3.2 | 0.00 | 0.00 | 0.00 | 43 | 1018.1 |
| 20260505184606 | 25 | 150 | 0.0 | 3.2 | 0.00 | 0.00 | 0.00 | 42 | 1018.3 |
| 20260505184327 | 25 | 86 | 0.0 | 3.2 | 0.00 | 0.00 | 0.00 | 41 | 1018.5 |
| 20260505183604 | 26 | 129 | 0.0 | 6.4 | 0.00 | 0.00 | 0.00 | 41 | 1018.5 |
| 20260505183105 | 26 | 95 | 0.0 | 6.4 | 0.00 | 0.00 | 0.00 | 42 | 1018.8 |
| 20260505182607 | 26 | 104 | 0.0 | 4.8 | 0.00 | 0.00 | 0.00 | 41 | 1019.0 |
| 20260505182103 | 26 | 76 | 0.0 | 3.2 | 0.00 | 0.00 | 0.00 | 41 | 1018.9 |
| 20260505181603 | 26 | 134 | 0.0 | 4.8 | 0.00 | 0.00 | 0.00 | 42 | 1019.1 |
| 20260505181104 | 26 | 155 | 0.0 | 4.8 | 0.00 | 0.00 | 0.00 | 42 | 1019.1 |
| 20260505180602 | 26 | 212 | 0.0 | 14.5 | 0.00 | 0.00 | 0.00 | 43 | 1019.1 |
| 20260505180107 | 26 | 134 | 1.6 | 14.5 | 0.00 | 0.00 | 0.00 | 42 | 1019.2 |
| 20260505175556 | 26 | 122 | 0.0 | 6.4 | 0.00 | 0.00 | 0.00 | 42 | 1019.3 |
| 20260505175055 | 26 | 128 | 0.0 | 4.8 | 0.00 | 0.00 | 0.00 | 45 | 1019.3 |
| 20260505174555 | 26 | 176 | 0.0 | 9.7 | 0.00 | 0.00 | 0.00 | 46 | 1019.4 |
| 20260505174053 | 25 | 104 | 1.6 | 9.7 | 0.00 | 0.00 | 0.00 | 45 | 1019.3 |
| 20260505173551 | 26 | 95 | 0.0 | 4.8 | 0.00 | 0.00 | 0.00 | 45 | 1019.3 |
| 20260505173043 | 25 | 162 | 0.0 | 8.0 | 0.00 | 0.00 | 0.00 | 45 | 1019.5 |
| 20260505172543 | 25 | 111 | 0.0 | 9.7 | 0.00 | 0.00 | 0.00 | 45 | 1019.5 |
| 20260505172312 | 25 | 333 | 0.0 | 11.3 | 0.00 | 0.00 | 0.00 | 43 | 1019.4 |
| 20260505171544 | 25 | 128 | 0.0 | 11.3 | 0.00 | 0.00 | 0.00 | 45 | 1019.4 |
| 20260505171043 | 25 | 146 | 1.6 | 8.0 | 0.00 | 0.00 | 0.00 | 42 | 1019.4 |
| 20260505170541 | 25 | 92 | 0.0 | 9.7 | 0.00 | 0.00 | 0.00 | 44 | 1019.4 |
| 20260505170045 | 25 | 121 | 0.0 | 9.7 | 0.00 | 0.00 | 0.00 | 45 | 1019.3 |
| 20260505165806 | 25 | 169 | 1.6 | 6.4 | 0.00 | 0.00 | 0.00 | 44 | 1019.4 |
| 20260505165035 | 25 | 84 | 0.0 | 9.7 | 0.00 | 0.00 | 0.00 | 44 | 1019.4 |
| 20260505164533 | 25 | 122 | 0.0 | 9.7 | 0.00 | 0.00 | 0.00 | 48 | 1019.4 |
| 20260505164035 | 25 | 146 | 0.0 | 3.2 | 0.00 | 0.00 | 0.00 | 46 | 1019.4 |
| 20260505163532 | 25 | 149 | 0.0 | 4.8 | 0.00 | 0.00 | 0.00 | 45 | 1019.5 |
| 20260505163255 | 25 | 175 | 0.0 | 11.3 | 0.00 | 0.00 | 0.00 | 50 | 1019.6 |
| 20260505162531 | 25 | 141 | 0.0 | 11.3 | 0.00 | 0.00 | 0.00 | 47 | 1019.7 |
| 20260505162032 | 25 | 146 | 1.6 | 6.4 | 0.00 | 0.00 | 0.00 | 48 | 1019.7 |
| 20260505161534 | 25 | 138 | 0.0 | 3.2 | 0.00 | 0.00 | 0.00 | 48 | 1019.8 |
| 20260505161253 | 25 | 109 | 0.0 | 3.2 | 0.00 | 0.00 | 0.00 | 49 | 1019.9 |
| 20260505160532 | 25 | 85 | 0.0 | 6.4 | 0.00 | 0.00 | 0.00 | 52 | 1019.9 |
| 20260505160257 | 25 | 144 | 0.0 | 6.4 | 0.00 | 0.00 | 0.00 | 51 | 1019.9 |
| 20260505153021 | 24 | 155 | 0.0 | 0.0 | 0.00 | 0.00 | 0.00 | 54 | 1019.9 |
| 20260505152529 | 24 | 155 | 0.0 | 0.0 | 0.00 | 0.00 | 0.00 | 53 | 1019.8 |
| 20260505152010 | 24 | 155 | 0.0 | 0.0 | 0.00 | 0.00 | 0.00 | 55 | 1020.0 |
| 20260505151508 | 23 | 155 | 0.0 | 0.0 | 0.00 | 0.00 | 0.00 | 58 | 1020.2 |
| 20260505150959 | 23 | 155 | 0.0 | 1.6 | 0.00 | 0.00 | 0.00 | 57 | 1020.2 |
| 20260505150459 | 23 | 155 | 0.0 | 1.6 | 0.00 | 0.00 | 0.00 | 57 | 1020.1 |
| 20260505140427 | 19 | 151 | 0.0 | 0.0 | 0.00 | 0.00 | 0.00 | 69 | 1019.6 |
| 20260505130118 | 12 | 151 | 0.0 | 0.0 | 0.00 | 0.00 | 0.00 | 94 | 1019.1 |
| 20260505124855 | 11 | 151 | 0.0 | 0.0 | 0.00 | 0.00 | 0.00 | 95 | 1019.0 |
| 20260505124355 | 11 | 151 | 0.0 | 0.0 | 0.00 | 0.00 | 0.00 | 96 | 1019.0 |
| 20260505123854 | 11 | 151 | 0.0 | 0.0 | 0.00 | 0.00 | 0.00 | 96 | 1019.0 |
| 20260505123351 | 11 | 151 | 0.0 | 0.0 | 0.00 | 0.00 | 0.00 | 97 | 1019.0 |
| 20260505123113 | 10 | 151 | 0.0 | 0.0 | 0.00 | 0.00 | 0.00 | 96 | 1019.0 |
| 20260505122349 | 10 | 151 | 0.0 | 0.0 | 0.00 | 0.00 | 0.00 | 97 | 1019.1 |
| 20260505121846 | 10 | 151 | 0.0 | 0.0 | 0.00 | 0.00 | 0.00 | 97 | 1019.0 |
| 20260505121349 | 10 | 151 | 0.0 | 0.0 | 0.00 | 0.00 | 0.00 | 96 | 1019.1 |
| 20260505120840 | 9 | 151 | 0.0 | 0.0 | 0.00 | 0.00 | 0.00 | 96 | 1019.1 |
| 20260505120353 | 9 | 151 | 0.0 | 0.0 | 0.00 | 0.00 | 0.00 | 97 | 1019.1 |
| 20260505115826 | 9 | 151 | 0.0 | 0.0 | 0.00 | 0.00 | 0.00 | 97 | 1019.0 |
| 20260505115321 | 8 | 151 | 0.0 | 0.0 | 0.00 | 0.00 | 0.00 | 96 | 1018.8 |
| 20260505115046 | 8 | 151 | 0.0 | 0.0 | 0.00 | 0.00 | 0.00 | 96 | 1018.7 |
| 20260505114309 | 8 | 151 | 0.0 | 0.0 | 0.00 | 0.00 | 0.00 | 96 | 1018.7 |
| 20260505114025 | 8 | 151 | 0.0 | 0.0 | 0.00 | 0.00 | 0.00 | 96 | 1018.7 |
| 20260505113307 | 8 | 151 | 0.0 | 0.0 | 0.00 | 0.00 | 0.00 | 96 | 1018.5 |
| 20260505112810 | 7 | 151 | 0.0 | 0.0 | 0.00 | 0.00 | 0.00 | 96 | 1018.5 |
| 20260505112304 | 7 | 151 | 0.0 | 0.0 | 0.00 | 0.00 | 0.00 | 96 | 1018.5 |
| 20260505112018 | 7 | 151 | 0.0 | 0.0 | 0.00 | 0.00 | 0.00 | 95 | 1018.3 |
| 20260505111739 | 7 | 151 | 0.0 | 0.0 | 0.00 | 0.00 | 0.00 | 95 | 1018.3 |
| 20260505110756 | 7 | 151 | 0.0 | 0.0 | 0.00 | 0.00 | 0.00 | 95 | 1018.4 |
| 20260505110308 | 7 | 151 | 0.0 | 0.0 | 0.00 | 0.00 | 0.00 | 95 | 1018.5 |
| 20260505101749 | 7 | 151 | 0.0 | 0.0 | 0.00 | 0.00 | 0.00 | 95 | 1018.4 |
| 20260505101253 | 7 | 151 | 0.0 | 0.0 | 0.00 | 0.00 | 0.00 | 94 | 1018.5 |
| 20260505100749 | 8 | 151 | 0.0 | 0.0 | 0.00 | 0.00 | 0.00 | 94 | 1018.5 |
| 20260505100249 | 8 | 151 | 0.0 | 0.0 | 0.00 | 0.00 | 0.00 | 95 | 1018.6 |
| 20260505095748 | 8 | 151 | 0.0 | 0.0 | 0.00 | 0.00 | 0.00 | 95 | 1018.4 |
| 20260505095249 | 8 | 151 | 0.0 | 0.0 | 0.00 | 0.00 | 0.00 | 95 | 1018.4 |
| 20260505094746 | 8 | 151 | 0.0 | 0.0 | 0.00 | 0.00 | 0.00 | 95 | 1018.3 |
| 20260505094248 | 8 | 151 | 0.0 | 0.0 | 0.00 | 0.00 | 0.00 | 95 | 1018.3 |
| 20260505093743 | 8 | 151 | 0.0 | 0.0 | 0.00 | 0.00 | 0.00 | 95 | 1018.3 |
| 20260505093241 | 8 | 151 | 0.0 | 0.0 | 0.00 | 0.00 | 0.00 | 94 | 1018.4 |
| 20260505092739 | 8 | 151 | 0.0 | 0.0 | 0.00 | 0.00 | 0.00 | 94 | 1018.4 |
| 20260505092241 | 8 | 151 | 0.0 | 0.0 | 0.00 | 0.00 | 0.00 | 94 | 1018.5 |
| 20260505091739 | 8 | 151 | 0.0 | 0.0 | 0.00 | 0.00 | 0.00 | 95 | 1018.5 |
| 20260505091457 | 8 | 151 | 0.0 | 0.0 | 0.00 | 0.00 | 0.00 | 95 | 1018.6 |
| 20260505090740 | 8 | 151 | 0.0 | 0.0 | 0.00 | 0.00 | 0.00 | 94 | 1018.6 |
| 20260505090238 | 8 | 151 | 0.0 | 0.0 | 0.00 | 0.00 | 0.00 | 94 | 1018.8 |
| 20260505085726 | 8 | 151 | 0.0 | 0.0 | 0.00 | 0.00 | 0.00 | 94 | 1018.8 |
| 20260505085229 | 8 | 151 | 0.0 | 0.0 | 0.00 | 0.00 | 0.00 | 94 | 1018.9 |
| 20260505084715 | 8 | 151 | 0.0 | 0.0 | 0.00 | 0.00 | 0.00 | 95 | 1018.9 |
| 20260505084216 | 8 | 151 | 0.0 | 0.0 | 0.00 | 0.00 | 0.00 | 94 | 1018.8 |
| 20260505083935 | 8 | 151 | 0.0 | 0.0 | 0.00 | 0.00 | 0.00 | 94 | 1018.7 |
| 20260505083204 | 8 | 151 | 0.0 | 0.0 | 0.00 | 0.00 | 0.00 | 94 | 1018.7 |
| 20260505082659 | 8 | 151 | 0.0 | 0.0 | 0.00 | 0.00 | 0.00 | 94 | 1018.7 |
| 20260505082158 | 8 | 151 | 0.0 | 0.0 | 0.00 | 0.00 | 0.00 | 94 | 1018.6 |
| 20260505081647 | 8 | 151 | 0.0 | 0.0 | 0.00 | 0.00 | 0.00 | 94 | 1018.6 |
| 20260505081150 | 8 | 151 | 0.0 | 0.0 | 0.00 | 0.00 | 0.00 | 94 | 1018.4 |
| 20260505080920 | 8 | 151 | 0.0 | 0.0 | 0.00 | 0.00 | 0.00 | 94 | 1018.4 |
| 20260505080148 | 9 | 151 | 0.0 | 0.0 | 0.00 | 0.00 | 0.00 | 94 | 1018.3 |
| 20260505075648 | 9 | 151 | 0.0 | 0.0 | 0.00 | 0.00 | 0.00 | 94 | 1018.2 |
| 20260505075145 | 9 | 151 | 0.0 | 0.0 | 0.00 | 0.00 | 0.00 | 94 | 1018.3 |
| 20260505074644 | 9 | 151 | 0.0 | 0.0 | 0.00 | 0.00 | 0.00 | 93 | 1018.3 |
| 20260505074148 | 9 | 151 | 0.0 | 0.0 | 0.00 | 0.00 | 0.00 | 94 | 1018.3 |
| 20260505073645 | 9 | 151 | 0.0 | 0.0 | 0.00 | 0.00 | 0.00 | 94 | 1018.4 |
| 20260505073146 | 9 | 151 | 0.0 | 0.0 | 0.00 | 0.00 | 0.00 | 93 | 1018.3 |
| 20260505072640 | 9 | 151 | 0.0 | 0.0 | 0.00 | 0.00 | 0.00 | 93 | 1018.3 |
| 20260505072137 | 9 | 151 | 0.0 | 0.0 | 0.00 | 0.00 | 0.00 | 93 | 1018.4 |
| 20260505071634 | 9 | 151 | 0.0 | 0.0 | 0.00 | 0.00 | 0.00 | 93 | 1018.4 |
| 20260505071126 | 9 | 151 | 0.0 | 0.0 | 0.00 | 0.00 | 0.00 | 93 | 1018.4 |
| 20260505070620 | 9 | 151 | 0.0 | 0.0 | 0.00 | 0.00 | 0.00 | 93 | 1018.4 |
| 20260505070116 | 10 | 151 | 0.0 | 0.0 | 0.00 | 0.00 | 0.00 | 92 | 1018.4 |
| 20260505065616 | 10 | 151 | 0.0 | 0.0 | 0.00 | 0.00 | 0.00 | 92 | 1018.4 |
| 20260505065116 | 10 | 151 | 0.0 | 0.0 | 0.00 | 0.00 | 0.00 | 92 | 1018.4 |
| 20260505064831 | 10 | 151 | 0.0 | 0.0 | 0.00 | 0.00 | 0.00 | 92 | 1018.3 |
| 20260505064113 | 10 | 151 | 0.0 | 0.0 | 0.00 | 0.00 | 0.00 | 92 | 1018.4 |
| 20260505063612 | 10 | 151 | 0.0 | 0.0 | 0.00 | 0.00 | 0.00 | 92 | 1018.4 |
| 20260505063112 | 10 | 151 | 0.0 | 0.0 | 0.00 | 0.00 | 0.00 | 92 | 1018.4 |
| 20260505062613 | 10 | 151 | 0.0 | 0.0 | 0.00 | 0.00 | 0.00 | 92 | 1018.4 |
| 20260505062110 | 10 | 151 | 0.0 | 0.0 | 0.00 | 0.00 | 0.00 | 92 | 1018.5 |
| 20260505061610 | 10 | 151 | 0.0 | 0.0 | 0.00 | 0.00 | 0.00 | 92 | 1018.5 |
| 20260505061104 | 10 | 151 | 0.0 | 0.0 | 0.00 | 0.00 | 0.00 | 92 | 1018.5 |
| 20260505060605 | 10 | 151 | 0.0 | 0.0 | 0.00 | 0.00 | 0.00 | 91 | 1018.4 |
| 20260505060104 | 10 | 151 | 0.0 | 0.0 | 0.00 | 0.00 | 0.00 | 91 | 1018.5 |
| 20260505055544 | 10 | 151 | 0.0 | 0.0 | 0.00 | 0.00 | 0.00 | 91 | 1018.5 |
| 20260505055044 | 10 | 151 | 0.0 | 0.0 | 0.00 | 0.00 | 0.00 | 91 | 1018.6 |
| 20260505054543 | 11 | 151 | 0.0 | 0.0 | 0.00 | 0.00 | 0.00 | 91 | 1018.6 |
| 20260505054038 | 11 | 151 | 0.0 | 0.0 | 0.00 | 0.00 | 0.00 | 91 | 1018.6 |
| 20260505053536 | 11 | 151 | 0.0 | 0.0 | 0.00 | 0.00 | 0.00 | 91 | 1018.7 |
| 20260505053253 | 11 | 151 | 0.0 | 0.0 | 0.00 | 0.00 | 0.00 | 91 | 1018.7 |
| 20260505052521 | 11 | 151 | 0.0 | 0.0 | 0.00 | 0.00 | 0.00 | 90 | 1018.6 |
| 20260505052012 | 11 | 151 | 0.0 | 0.0 | 0.00 | 0.00 | 0.00 | 90 | 1018.7 |
| 20260505051726 | 11 | 151 | 0.0 | 0.0 | 0.00 | 0.00 | 0.00 | 90 | 1018.7 |
| 20260505051003 | 11 | 151 | 0.0 | 0.0 | 0.00 | 0.00 | 0.00 | 90 | 1018.7 |
| 20260505050724 | 11 | 151 | 0.0 | 0.0 | 0.00 | 0.00 | 0.00 | 89 | 1018.8 |
| 20260505041432 | 12 | 151 | 0.0 | 0.0 | 0.00 | 0.00 | 0.00 | 87 | 1018.6 |
| 20260505040931 | 12 | 151 | 0.0 | 0.0 | 0.00 | 0.00 | 0.00 | 87 | 1018.6 |
| 20260505040913 | 12 | 151 | 0.0 | 0.0 | 0.00 | 0.00 | 0.00 | 87 | 1018.6 |
| 20260505035919 | 12 | 151 | 0.0 | 0.0 | 0.00 | 0.00 | 0.00 | 87 | 1018.6 |
| 20260505035419 | 12 | 151 | 0.0 | 0.0 | 0.00 | 0.00 | 0.00 | 87 | 1018.7 |
| 20260505035139 | 12 | 151 | 0.0 | 0.0 | 0.00 | 0.00 | 0.00 | 86 | 1018.7 |
| 20260505034636 | 12 | 151 | 0.0 | 0.0 | 0.00 | 0.00 | 0.00 | 86 | 1018.8 |
| 20260505033912 | 13 | 151 | 0.0 | 0.0 | 0.00 | 0.00 | 0.00 | 86 | 1018.8 |
| 20260505033414 | 13 | 151 | 0.0 | 0.0 | 0.00 | 0.00 | 0.00 | 86 | 1018.8 |
| 20260505033142 | 13 | 151 | 0.0 | 0.0 | 0.00 | 0.00 | 0.00 | 85 | 1018.9 |
| 20260505032413 | 13 | 151 | 0.0 | 0.0 | 0.00 | 0.00 | 0.00 | 85 | 1018.9 |
| 20260505031905 | 13 | 151 | 0.0 | 0.0 | 0.00 | 0.00 | 0.00 | 85 | 1018.9 |
| 20260505031406 | 13 | 151 | 0.0 | 0.0 | 0.00 | 0.00 | 0.00 | 84 | 1018.9 |
| 20260505030904 | 13 | 151 | 0.0 | 0.0 | 0.00 | 0.00 | 0.00 | 84 | 1018.9 |
| 20260505030615 | 13 | 151 | 0.0 | 0.0 | 0.00 | 0.00 | 0.00 | 83 | 1018.9 |
| 20260505025847 | 13 | 151 | 0.0 | 0.0 | 0.00 | 0.00 | 0.00 | 83 | 1018.9 |
| 20260505025350 | 13 | 151 | 0.0 | 0.0 | 0.00 | 0.00 | 0.00 | 83 | 1018.9 |
| 20260505024843 | 14 | 151 | 0.0 | 0.0 | 0.00 | 0.00 | 0.00 | 82 | 1018.9 |
| 20260505024342 | 14 | 151 | 0.0 | 0.0 | 0.00 | 0.00 | 0.00 | 82 | 1018.9 |
| 20260505024117 | 14 | 151 | 0.0 | 0.0 | 0.00 | 0.00 | 0.00 | 81 | 1018.7 |
| 20260505023344 | 14 | 151 | 0.0 | 0.0 | 0.00 | 0.00 | 0.00 | 81 | 1018.7 |
| 20260505023103 | 15 | 151 | 0.0 | 0.0 | 0.00 | 0.00 | 0.00 | 80 | 1018.7 |
| 20260505022321 | 15 | 151 | 0.0 | 0.0 | 0.00 | 0.00 | 0.00 | 80 | 1018.7 |
| 20260505021821 | 15 | 151 | 0.0 | 0.0 | 0.00 | 0.00 | 0.00 | 79 | 1018.7 |
| 20260505021321 | 15 | 151 | 0.0 | 0.0 | 0.00 | 0.00 | 0.00 | 79 | 1018.7 |
| 20260505020819 | 15 | 151 | 0.0 | 0.0 | 0.00 | 0.00 | 0.00 | 78 | 1018.7 |
| 20260505020314 | 15 | 151 | 0.0 | 0.0 | 0.00 | 0.00 | 0.00 | 78 | 1018.6 |
| 20260505020034 | 15 | 151 | 0.0 | 0.0 | 0.00 | 0.00 | 0.00 | 77 | 1018.5 |
| 20260505015310 | 16 | 151 | 0.0 | 0.0 | 0.00 | 0.00 | 0.00 | 76 | 1018.5 |
| 20260505014801 | 16 | 151 | 0.0 | 0.0 | 0.00 | 0.00 | 0.00 | 76 | 1018.6 |
| 20260505014252 | 16 | 151 | 0.0 | 0.0 | 0.00 | 0.00 | 0.00 | 75 | 1018.5 |